Weather History for Crestview, FL

Change the Weather History Date:

Monday, December 2, 2013

  Actual Average Record
Temperature  
Mean Temperature 58 °F -  
Max Temperature 70 °F - - ()
Min Temperature 45 °F - - ()
Degree Days  
Heating Degree Days 8    
Growing Degree Days 8 (Base 50)    
Moisture  
Dew Point 46 °F    
Average Humidity 71    
Maximum Humidity 91    
Minimum Humidity 39    
Precipitation  
Precipitation 0.00 in - - ()
Sea Level Pressure  
Sea Level Pressure 29.91 in    
Wind  
Wind Speed 3 mph (South)    
Max Wind Speed 9 mph    
Max Gust Speed -    
Visibility 10 miles    
Events      
T = Trace of Precipitation, MM = Missing Value Source: NWS Daily Summary

Daily Weather History Graph

Daily Weather History Graph

Search for Another Location

Airport:

Trip Planner

Search our weather history database for the weather conditions in past years. The results will help you decide how hot, cold, wet, or windy it might be!

Date:

Astronomy

Dec. 02, 2013 Rise Set
Actual Time 6:26 AM CST 4:44 PM CST
Civil Twilight 6:00 AM CST 5:10 PM CST
Nautical Twilight 5:30 AM CST 5:40 PM CST
Astronomical Twilight 5:01 AM CST 6:09 PM CST
Moon 5:53 AM CST (12/2) 4:44 PM CST (12/2)
Length of Visible Light 11h 10m
Length of Day
10h 17m
Waning Crescent, 0% of the Moon is Illuminated
Dec 2
Waning Crescent
Dec 2
New
Dec 9
First Quarter
Dec 17
Full
Dec 25
Last Quarter

Hourly Weather History & Observations

Time (CST) Temp. Windchill Dew Point Humidity Pressure Visibility Wind Dir Wind Speed Gust Speed Precip Events Conditions
12:58 AM 47.7 °F - 44.4 °F 89% 30.02 in 10.0 mi Calm Calm - N/A   Scattered Clouds
1:58 AM 48.0 °F - 44.6 °F 88% 30.02 in 10.0 mi North 1.2 mph - N/A   Partly Cloudy
2:58 AM 49.1 °F - 45.5 °F 87% 29.99 in 10.0 mi Calm Calm - N/A   Clear
3:58 AM 49.5 °F - 45.5 °F 86% 29.98 in 10.0 mi North 1.2 mph - N/A   Partly Cloudy
4:58 AM 48.7 °F - 45.3 °F 88% 29.96 in 10.0 mi Calm Calm - N/A   Scattered Clouds
5:58 AM 45.5 °F 44.2 °F 42.8 °F 90% 29.96 in 5.0 mi ENE 3.5 mph - N/A   Clear
6:58 AM 45.1 °F - 42.6 °F 91% 29.96 in 10.0 mi Calm Calm - N/A   Clear
7:58 AM 52.3 °F - 43.5 °F 72% 29.95 in 10.0 mi Calm Calm - N/A   Scattered Clouds
8:55 AM 58.6 °F - 42.1 °F 54% 29.95 in 10.0 mi South 4.6 mph - N/A   Scattered Clouds
9:55 AM 63.3 °F - 42.3 °F 46% 29.94 in 10.0 mi South 3.5 mph - N/A   Scattered Clouds
10:55 AM 67.1 °F - 44.2 °F 44% 29.91 in 10.0 mi WSW 6.9 mph - N/A   Partly Cloudy
11:55 AM 67.6 °F - 43.9 °F 42% 29.88 in 10.0 mi Variable 1.2 mph - N/A   Partly Cloudy
12:55 PM 70.0 °F - 44.1 °F 39% 29.86 in 10.0 mi WNW 5.8 mph - N/A   Partly Cloudy
1:55 PM 70.0 °F - 44.1 °F 39% 29.85 in 10.0 mi SSE 8.1 mph - N/A   Partly Cloudy
2:55 PM 68.5 °F - 46.0 °F 44% 29.83 in 10.0 mi South 9.2 mph - N/A   Partly Cloudy
3:55 PM 66.7 °F - 46.0 °F 47% 29.82 in 10.0 mi South 9.2 mph - N/A   Partly Cloudy
4:55 PM 60.6 °F - 46.9 °F 61% 29.84 in 10.0 mi South 6.9 mph - N/A   Partly Cloudy
5:55 PM 56.3 °F - 47.5 °F 72% 29.85 in 10.0 mi South 4.6 mph - N/A   Partly Cloudy
6:55 PM 53.8 °F - 47.8 °F 80% 29.86 in 10.0 mi South 5.8 mph - N/A   Partly Cloudy
7:55 PM 54.1 °F - 48.9 °F 82% 29.87 in 10.0 mi SSE 4.6 mph - N/A   Partly Cloudy
8:55 PM 54.3 °F - 50.2 °F 86% 29.86 in 10.0 mi South 5.8 mph - N/A   Partly Cloudy
9:55 PM 54.7 °F - 51.6 °F 89% 29.87 in 10.0 mi South 3.5 mph - N/A   Scattered Clouds
10:55 PM 55.4 °F - 52.7 °F 91% 29.88 in 10.0 mi South 3.5 mph - N/A   Scattered Clouds
11:55 PM 54.0 °F - 51.1 °F 90% 29.86 in 10.0 mi South 5.8 mph - N/A   Mostly Cloudy